Lawrence, MA

6:31 PM EST on November 11, 2019 (GMT -0500)
Lawrence Municipal

Weather History for KLWM - August, 2019

Change the Weather History Date:

Saturday, August 31, 2019

  Actual Average Record
Temperature  
Mean Temperature 66 °F -  
Max Temperature 77 °F 78 °F 95 °F (1953)
Min Temperature 57 °F 57 °F 39 °F (1965)
Cooling Degree Days 1    
Growing Degree Days 16 (Base 50)    
Moisture  
Dew Point 52 °F    
Average Humidity 60    
Maximum Humidity 84    
Minimum Humidity 41    
Precipitation  
Precipitation 0.00 in - - ()
Sea Level Pressure  
Sea Level Pressure 30.20 in    
Wind  
Wind Speed 5 mph (WNW)    
Max Wind Speed 12 mph    
Max Gust Speed -    
Visibility 10 miles    
Events      
Averages and records for this station are not official NWS values.
T = Trace of Precipitation, MM = Missing Value Source: NWS Daily Summary

Daily Weather History Graph

Daily Weather History Graph

Search for Another Location

Airport or City:

Astronomy

Aug. 31, 2019 Rise Set
Actual Time 6:07 AM EDT 7:21 PM EDT
Civil Twilight 5:38 AM EDT 7:50 PM EDT
Nautical Twilight 5:03 AM EDT 8:24 PM EDT
Astronomical Twilight 4:26 AM EDT 9:01 PM EDT
Moon 7:20 AM EDT (8/31) 8:30 PM EDT (8/31)
Length of Visible Light 14h 11m
Length of Day
13h 13m
New Moon, 2% of the Moon is Illuminated
Aug 31
New Moon
Sep 5
First Quarter
Sep 14
Full
Sep 21
Last Quarter
Sep 28
New

Hourly Weather History & Observations

Time (EDT) Temp. Dew Point Humidity Pressure Visibility Wind Dir Wind Speed Gust Speed Precip Events Conditions
12:54 AM 68.0 °F 52.0 °F 56% 30.10 in 10.0 mi West 4.6 mph - N/A   Clear
1:54 AM 64.0 °F 53.1 °F 67% 30.10 in 10.0 mi WSW 3.5 mph - N/A   Clear
2:54 AM 62.1 °F 54.0 °F 75% 30.11 in 10.0 mi WSW 4.6 mph - N/A   Clear
3:54 AM 63.0 °F 52.0 °F 67% 30.12 in 10.0 mi West 4.6 mph - N/A   Clear
4:54 AM 59.0 °F 53.1 °F 81% 30.13 in 10.0 mi SSW 4.6 mph - N/A   Clear
5:54 AM 57.9 °F 53.1 °F 84% 30.16 in 10.0 mi SSW 3.5 mph - N/A   Clear
6:54 AM 59.0 °F 54.0 °F 83% 30.17 in 10.0 mi SSW 3.5 mph - N/A   Clear
7:54 AM 63.0 °F 55.0 °F 75% 30.19 in 10.0 mi Calm Calm - N/A   Clear
8:54 AM 68.0 °F 53.1 °F 59% 30.20 in 10.0 mi West 9.2 mph - N/A   Clear
9:54 AM 70.0 °F 52.0 °F 53% 30.20 in 10.0 mi NW 11.5 mph - N/A   Clear
10:54 AM 71.1 °F 53.1 °F 53% 30.20 in 10.0 mi WNW 10.4 mph - N/A   Clear
11:54 AM 73.0 °F 53.1 °F 49% 30.19 in 10.0 mi NW 9.2 mph - N/A   Clear
12:54 PM 73.9 °F 48.9 °F 41% 30.19 in 10.0 mi WNW 8.1 mph - N/A   Clear
1:54 PM 75.0 °F 50.0 °F 41% 30.19 in 10.0 mi NNW 9.2 mph - N/A   Clear
2:54 PM 75.9 °F 51.1 °F 42% 30.19 in 10.0 mi West 10.4 mph - N/A   Scattered Clouds
3:54 PM 75.0 °F 52.0 °F 44% 30.20 in 10.0 mi Variable 5.8 mph - N/A   Partly Cloudy
4:54 PM 73.9 °F 48.9 °F 41% 30.21 in 10.0 mi Variable 6.9 mph - N/A   Scattered Clouds
5:54 PM 72.0 °F 51.1 °F 48% 30.23 in 10.0 mi NNW 6.9 mph - N/A   Clear
6:54 PM 70.0 °F 52.0 °F 53% 30.25 in 10.0 mi NNW 5.8 mph - N/A   Clear
7:54 PM 66.9 °F 52.0 °F 59% 30.26 in 10.0 mi North 4.6 mph - N/A   Clear
8:54 PM 64.0 °F 52.0 °F 65% 30.27 in 10.0 mi North 4.6 mph - N/A   Clear
9:54 PM 64.0 °F 52.0 °F 65% 30.29 in 10.0 mi Calm Calm - N/A   Clear
10:54 PM 63.0 °F 51.1 °F 65% 30.30 in 10.0 mi NNE 3.5 mph - N/A   Clear
11:54 PM 60.1 °F 51.1 °F 72% 30.31 in 10.0 mi Calm Calm - N/A   Clear